Regional Weather Roundup
Issued by NWS

Home | Current Version | Previous Version | Text Only | Print | Product List | Glossary Off
Versions: 1 2 3 4 5 6 7 8 9 10 11 12 13 14 15 16 17 18 19 20 21 22 23 24 25 26 27 28 29 30 31 32 33 34 35 36 37 38 39 40 41 42 43 44 45 46 47 48

000
ASUS45 KBOU 201107
RWRCO

WEATHER ROUNDUP FOR COLORADO
NATIONAL WEATHER SERVICE DENVER/BOULDER CO
500 AM MDT SAT SEP 20 2014

NOTE: "FAIR" INDICATES FEW OR NO CLOUDS BELOW 12000 FEET WITH NO
SIGNIFICANT WEATHER AND/OR OBSTRUCTIONS TO VISIBILITY.

COZ001>005-013-030-031-201200-
...NORTHWEST COLORADO...

CITY           SKY/WX    TMP DP  RH WIND       PRES   REMARKS
CRAIG          CLEAR     41  38  89 SE3       30.26R
HAYDEN         CLEAR     48  39  71 E8        30.26S
MEEKER         NOT AVBL
MOUNT WERNER   NOT AVBL
STEAMBOAT SPGS CLEAR     45  41  86 CALM      30.29R
WALDEN         CLEAR     36  32  87 SE7       30.35S
$$

COZ006>008-011-201200-
...WEST CENTRAL VALLEYS...

CITY           SKY/WX    TMP DP  RH WIND       PRES   REMARKS
GRAND JUNCTION CLEAR     62  43  49 E6        30.10R
MONTROSE       CLEAR     59  43  55 SE12      30.19R
EAGLE          CLEAR     48  43  81 CALM      30.30R
RIFLE          CLEAR     54  45  71 E3        30.19R
DELTA          CLEAR     56  43  61 CALM      30.15R HAZE
NUCLA          CLEAR     57  43  58 E8        30.19F
$$

COZ017>023-064>068-201200-
...SOUTHWEST COLORADO...

CITY           SKY/WX    TMP DP  RH WIND       PRES   REMARKS
DURANGO        CLEAR     51  43  74 N3        30.19R
CORTEZ         CLEAR     49  44  83 NE3       30.14S
PAGOSA SPRINGS CLEAR     47  42  81 CALM      30.27S
TELLURIDE      NOT AVBL
WOLF CREEK PAS CLEAR     45  32  61 NE15      30.57S
$$

COZ009-010-012-014-032>034-037-058>063-201200-
...CENTRAL COLORADO...

CITY           SKY/WX    TMP DP  RH WIND       PRES   REMARKS
ASPEN          CLEAR     49  39  68 S6        30.33R
BUENA VISTA    PTCLDY    50  37  61 CALM      30.35R
COPPER MTN     CLEAR     46  36  66 W6        30.61R
BERTHOUD PASS  FAIR      37  36  93 NW15      30.64R
COTTONWOOD PAS PTCLDY    59  34  38 W7        30.45S
GUNNISON       CLEAR     43  36  75 N5        30.36R
KREMMLING      CLEAR     41  36  81 CALM      30.35R
LEADVILLE      CLEAR     41  35  79 NE5       30.46R
MONARCH PASS   PTCLDY    46  32  57 E7        30.69S
SALIDA         PTCLDY    49  39  67 CALM      30.39R
SUNLIGHT       CLEAR     50  41  71 NE3       30.53S
WILKERSON PASS NOT AVBL
$$

COZ069>075-201200-
...SAN LUIS VALLEY/SANGRE DE CRISTO MOUNTAINS...

CITY           SKY/WX    TMP DP  RH WIND       PRES   REMARKS
ALAMOSA        PTCLDY    46  38  73 SE7       30.28R
LA VETA PASS   CLEAR     54  43  66 CALM      30.46S
SAGUACHE       NOT AVBL
$$

COZ035-036-038>040-201200-
...NORTHERN COLORADO FRONT RANGE...

CITY           SKY/WX    TMP DP  RH WIND       PRES   REMARKS
DENVER INTL AP PTCLDY    61  47  59 SW9       30.13S
DMNS CITY PARK   N/A     60  48  64 S3G10     30.13S
AURORA         PTCLDY    59  46  63 S8        30.16S
FRONT RANGE AP NOT AVBL
ERIE MUNI ARPT CLEAR     55  49  80 CALM      30.13R
BOULDER MUN AP CLEAR     59  48  67 W6        30.14R
CENTENNIAL     PTCLDY    56  46  69 SW9       30.16S
BROOMFIELD     CLEAR     63  45  51 N15       30.15S
FORT COLLINS   CLEAR     57  45  62 CALM      30.14S
LONGMONT       CLEAR     59  49  68 CALM      30.15S
$$

COZ041-046-047-076>085-087-088-201200-
...PIKES PEAK/PALMER DIVIDE AND SOUTHERN FOOTHILLS...

CITY           SKY/WX    TMP DP  RH WIND       PRES   REMARKS
COLO. SPRINGS  CLEAR     63  44  50 NW9       30.18R
A. F. ACADEMY  CLEAR     53  42  66 N8        30.20S
ELLICOTT       NOT AVBL
FALCON         CLEAR     59  43  55 NW8       30.22S
FORT CARSON    CLEAR     60  44  56 NW10      30.14S
LIMON          CLEAR     55  48  77 W9        30.12R
MONUMENT HILL  CLEAR     50  41  71 W7        30.24R
TRINIDAD       CLEAR     58  50  75 W13       30.14R
$$

COZ042>045-048>051-090-091-201200-
...NORTHEAST COLORADO...

CITY           SKY/WX    TMP DP  RH WIND       PRES   REMARKS
GREELEY ARPT   CLEAR     55  45  67 NW9       30.13S
AKRON          PTCLDY    60  53  77 W14       30.08R
BURLINGTON     CLEAR     60  57  89 NW9       30.03R
WRAY           CLEAR     62  52  71 NW3       30.01R
STERLING       CLEAR     61  54  77 N9        30.06R
HOLYOKE        CLEAR     63  54  72 W7        30.03R
FORT MORGAN    CLEAR     61  48  62 N15       30.10R
$$

COZ086-089-092>099-201200-
...SOUTHEAST COLORADO...

CITY           SKY/WX    TMP DP  RH WIND       PRES   REMARKS
PUEBLO         CLEAR     62  44  51 CALM      30.07S
LA JUNTA       CLEAR     57  54  89 W5        30.03R
LAMAR          CLEAR     55  53  93 SW6       29.97F
SPRINGFIELD      N/A     60  60 100 SW7       30.03R
$$



USA.gov is the U.S. government's official web portal to all federal, state and local government web resources and services.